Change the Weather History Date:

Wednesday, May 16, 2012

  Actual Average Record
Temperature  
Mean Temperature 71 °F 71 °F  
Max Temperature 82 °F 82 °F 97 °F (1962)
Min Temperature 60 °F 60 °F 43 °F (1973)
Cooling Degree Days 6 6  
Month to date cooling degree days 113 78  
Year to date cooling degree days 341 162  
Growing Degree Days 22 (Base 50)    
Moisture  
Dew Point 59 °F    
Average Humidity 69    
Maximum Humidity 100    
Minimum Humidity 37    
Precipitation  
Precipitation 0.00 in 0.16 in 2.30 in (1980)
Month to date precipitation 4.60 2.60  
Year to date precipitation 19.44 21.58  
Sea Level Pressure  
Sea Level Pressure 30.00 in    
Wind  
Wind Speed 4 mph (North)    
Max Wind Speed 13 mph    
Max Gust Speed 17 mph    
Visibility 10 miles    
Events      
T = Trace of Precipitation, MM = Missing Value Source: NWS Daily Summary

Daily Weather History Graph

Daily Weather History Graph

Search for Another Location

Airport or City:

Trip Planner

Search our weather history database for the weather conditions in past years. The results will help you decide how hot, cold, wet, or windy it might be!

Date:

Astronomy

May. 16, 2012 Rise Set
Actual Time 5:45 AM CDT 7:41 PM CDT
Civil Twilight 5:17 AM CDT 8:09 PM CDT
Nautical Twilight 4:44 AM CDT 8:42 PM CDT
Astronomical Twilight 4:08 AM CDT 9:18 PM CDT
Moon 3:04 AM CDT (5/16) 4:05 PM CDT (5/16)
Length of Visible Light 14h 51m
Length of Day
13h 56m
Waning Crescent, 16% of the Moon is Illuminated
May 16
Waning Crescent
May 20
New
May 28
First Quarter
Jun 4
Full
Jun 11
Last Quarter

Hourly Weather History & Observations

Time (CDT) Temp. Heat Index Dew Point Humidity Pressure Visibility Wind Dir Wind Speed Gust Speed Precip Events Conditions
12:53 AM 63.0 °F - 61.0 °F 93% 30.01 in 10.0 mi Calm Calm - N/A   Clear
1:53 AM 63.0 °F - 61.0 °F 93% 30.00 in 10.0 mi Calm Calm - N/A   Clear
2:53 AM 62.1 °F - 60.1 °F 93% 30.00 in 10.0 mi Calm Calm - N/A   Clear
3:53 AM 61.0 °F - 60.1 °F 97% 30.00 in 10.0 mi Calm Calm - N/A   Clear
4:53 AM 62.1 °F - 60.1 °F 93% 30.01 in 10.0 mi Calm Calm - N/A   Clear
5:53 AM 61.0 °F - 59.0 °F 93% 30.02 in 9.0 mi Calm Calm - N/A   Clear
6:53 AM 63.0 °F - 60.1 °F 90% 30.04 in 9.0 mi Calm Calm - N/A   Clear
7:53 AM 66.9 °F - 60.1 °F 79% 30.04 in 10.0 mi Calm Calm - N/A   Clear
8:53 AM 72.0 °F - 60.1 °F 66% 30.04 in 10.0 mi North 6.9 mph - N/A   Clear
9:53 AM 75.9 °F - 57.0 °F 52% 30.05 in 10.0 mi North 9.2 mph - N/A   Clear
10:53 AM 77.0 °F - 57.0 °F 50% 30.05 in 10.0 mi North 10.4 mph - N/A   Clear
11:53 AM 80.1 °F 80.7 °F 59.0 °F 48% 30.04 in 10.0 mi Variable 5.8 mph - N/A   Scattered Clouds
12:53 PM 80.1 °F 80.2 °F 55.9 °F 43% 30.02 in 10.0 mi NNE 9.2 mph - N/A   Scattered Clouds
1:53 PM 81.0 °F 80.5 °F 54.0 °F 39% 30.00 in 10.0 mi North 9.2 mph - N/A   Scattered Clouds
2:53 PM 81.0 °F 80.8 °F 55.9 °F 42% 29.97 in 10.0 mi North 12.7 mph - N/A   Partly Cloudy
3:53 PM 82.0 °F 81.3 °F 54.0 °F 38% 29.95 in 10.0 mi North 9.2 mph - N/A   Partly Cloudy
4:53 PM 81.0 °F 80.7 °F 55.0 °F 41% 29.95 in 10.0 mi North 8.1 mph - N/A   Scattered Clouds
5:53 PM 79.0 °F - 55.9 °F 45% 29.95 in 10.0 mi North 5.8 mph - N/A   Scattered Clouds
6:53 PM 78.1 °F - 57.0 °F 48% 29.94 in 10.0 mi Calm Calm - N/A   Clear
7:53 PM 73.9 °F - 61.0 °F 64% 29.95 in 10.0 mi Calm Calm - N/A   Partly Cloudy
8:53 PM 71.1 °F - 59.0 °F 66% 29.96 in 10.0 mi Calm Calm - N/A   Partly Cloudy
9:53 PM 69.1 °F - 62.1 °F 78% 29.98 in 9.0 mi Calm Calm - N/A   Clear
10:53 PM 66.9 °F - 62.1 °F 84% 29.99 in 9.0 mi Calm Calm - N/A   Scattered Clouds
11:53 PM 66.0 °F - 61.0 °F 84% 29.99 in 8.0 mi Calm Calm - N/A   Clear